Date String (YYYY-MM-DD hh:mm:ss) UTC,Instrument flags,Ambient pressure (hPa),Sample flow (lpm),Bypass flow (lpm),Sample temperature (°C),Ambient temperature (°C),ASC tube jacket temperature (°C),LED temperature (°C),Box temperature (°C),Sample RH (%),Span deviation,Mass concentration (μg/m³),Mass concentration (μg/m³),Mass concentration (μg/m³)
DateTimeUTC,F1_M11,P_M11,Q1_M11,Q2_M11,T1_M11,T2_M11,T3_M11,T4_M11,T5_M11,U1_M11,ZSPAN_M11,X2_M11,X0_M11,X1_M11
2022-10-01 09:00:00,,0826.6,5.00,0.00,30.5,29.0,00.0,39.3,32.3,24.3,0000.0,0001.92,0004.02,0000.99
2022-10-01 09:01:00,,0826.6,5.00,0.00,30.5,29.1,00.0,39.3,32.3,24.4,0000.0,0001.95,0004.13,0001.00
2022-10-01 09:02:00,,0826.6,4.99,0.00,30.5,29.1,00.0,39.3,32.3,24.4,0000.0,0002.00,0004.27,0001.02
2022-10-01 09:03:00,,0826.5,5.00,0.00,30.5,29.1,00.0,39.3,32.3,24.5,0000.0,0002.06,0004.43,0001.05
2022-10-01 09:04:00,,0826.5,5.01,0.00,30.5,29.0,00.0,39.3,32.3,24.7,0000.0,0002.09,0004.42,0001.11
2022-10-01 09:05:00,,0826.5,5.00,0.00,30.5,29.0,00.0,39.3,32.3,24.9,0000.0,0002.17,0004.60,0001.18
2022-10-01 09:06:00,,0826.5,5.00,0.00,30.5,29.1,00.0,39.3,32.3,25.1,0000.0,0002.19,0004.48,0001.24
2022-10-01 09:07:00,,0826.5,5.00,0.00,30.5,29.1,00.0,39.3,32.3,25.6,0000.0,0002.24,0004.51,0001.32
2022-10-01 09:08:00,,0826.4,5.01,0.00,30.5,29.1,00.0,39.3,32.3,26.3,0000.0,0002.26,0004.47,0001.38
2022-10-01 09:09:00,,0826.5,5.00,0.00,30.5,29.1,00.0,39.3,32.4,25.7,0000.0,0002.29,0004.54,0001.46
2022-10-01 09:10:00,,0826.5,5.00,0.00,30.5,29.1,00.0,39.3,32.3,25.6,0000.0,0002.30,0004.39,0001.55
2022-10-01 09:11:00,,0826.5,4.99,0.00,30.5,29.1,00.0,39.3,32.3,25.6,0000.0,0002.34,0004.39,0001.64
2022-10-01 09:12:00,,0826.4,5.00,0.00,30.5,29.1,00.0,39.3,32.3,25.6,0000.0,0002.45,0004.50,0001.75
2022-10-01 09:13:00,,0826.4,5.00,0.00,30.5,29.0,00.0,39.3,32.4,25.6,0000.0,0002.55,0004.39,0001.86
2022-10-01 09:14:00,,0826.4,5.01,0.00,30.5,29.0,00.0,39.3,32.3,25.5,0000.0,0002.58,0004.26,0001.95
2022-10-01 09:15:00,,0826.4,5.01,0.00,30.5,29.0,00.0,39.3,32.3,25.3,0000.0,0002.60,0004.22,0001.99
2022-10-01 09:16:00,,0826.4,4.99,0.00,30.5,29.0,00.0,39.3,32.3,25.2,0000.0,0002.61,0004.20,0001.99
2022-10-01 09:17:00,,0826.3,5.00,0.00,30.5,29.0,00.0,39.3,32.3,25.2,0000.0,0002.64,0004.24,0002.02
2022-10-01 09:18:00,,0826.3,5.00,0.00,30.5,29.0,00.0,39.3,32.3,25.4,0000.0,0002.66,0004.14,0002.08
2022-10-01 09:19:00,,0826.2,5.01,0.00,30.5,29.0,00.0,39.3,32.3,25.5,0000.0,0002.73,0004.14,0002.16
2022-10-01 09:20:00,,0826.3,4.99,0.00,30.5,29.1,00.0,39.3,32.3,25.9,0000.0,0002.87,0004.15,0002.30
2022-10-01 09:21:00,,0826.2,5.01,0.00,30.5,29.1,00.0,39.3,32.3,26.1,0000.0,0003.07,0004.26,0002.49
2022-10-01 09:22:00,,0826.3,5.01,0.00,30.5,29.0,00.0,39.3,32.4,26.1,0000.0,0003.15,0004.26,0002.64
2022-10-01 09:23:00,,0826.4,5.01,0.00,30.5,29.0,00.0,39.3,32.4,26.1,0000.0,0003.21,0004.41,0002.77
2022-10-01 09:24:00,,0826.3,4.98,0.00,30.5,29.1,00.0,39.3,32.3,26.1,0000.0,0003.26,0004.57,0002.89
2022-10-01 09:25:00,,0826.3,5.00,0.00,30.6,29.1,00.0,39.3,32.3,26.0,0000.0,0003.31,0004.70,0002.98
2022-10-01 09:26:00,,0826.4,4.99,0.00,30.6,29.1,00.0,39.3,32.3,25.8,0000.0,0003.35,0004.82,0003.03
2022-10-01 09:27:00,,0826.5,5.01,0.00,30.6,29.1,00.0,39.3,32.4,25.9,0000.0,0003.42,0004.89,0003.16
2022-10-01 09:28:00,,0826.5,5.00,0.00,30.6,29.1,00.0,39.3,32.4,26.0,0000.0,0003.51,0005.37,0003.24
2022-10-01 09:29:00,,0826.5,5.00,0.00,30.6,29.1,00.0,39.3,32.4,25.9,0000.0,0003.54,0005.44,0003.26
2022-10-01 09:30:00,,0826.5,5.00,0.00,30.6,29.1,00.0,39.3,32.4,25.9,0000.0,0003.58,0005.57,0003.29
2022-10-01 09:31:00,,0826.5,5.00,0.00,30.6,29.1,00.0,39.3,32.4,25.8,0000.0,0003.56,0005.50,0003.28
2022-10-01 09:32:00,,0826.5,4.99,0.00,30.6,29.1,00.0,39.3,32.4,25.9,0000.0,0003.48,0005.34,0003.22
2022-10-01 09:33:00,,0826.5,5.00,0.00,30.6,29.1,00.0,39.3,32.4,25.9,0000.0,0003.46,0005.37,0003.19
2022-10-01 09:34:00,,0826.5,5.00,0.00,30.6,29.1,00.0,39.3,32.4,25.9,0000.0,0003.44,0005.31,0003.16
2022-10-01 09:35:00,,0826.5,5.00,0.00,30.6,29.1,00.0,39.3,32.4,25.9,0000.0,0003.42,0005.18,0003.13
2022-10-01 09:36:00,,0826.5,5.00,0.00,30.6,29.1,00.0,39.3,32.4,25.9,0000.0,0003.41,0005.21,0003.11
2022-10-01 09:37:00,,0826.5,5.00,0.00,30.6,29.0,00.0,39.3,32.4,25.7,0000.0,0003.41,0005.14,0003.13
2022-10-01 09:38:00,,0826.5,4.99,0.00,30.6,29.0,00.0,39.3,32.4,25.5,0000.0,0003.35,0004.98,0003.07
2022-10-01 09:39:00,,0826.6,5.00,0.00,30.6,29.0,00.0,39.3,32.4,25.0,0000.0,0003.27,0004.53,0002.95
2022-10-01 09:40:00,,0826.5,5.01,0.00,30.6,29.0,00.0,39.3,32.4,25.1,0000.0,0003.19,0004.28,0002.82
2022-10-01 09:41:00,,0826.5,5.00,0.00,30.6,29.0,00.0,39.3,32.4,25.6,0000.0,0003.15,0004.23,0002.75
2022-10-01 09:42:00,,0826.5,4.99,0.00,30.6,29.0,00.0,39.3,32.4,25.8,0000.0,0003.13,0004.27,0002.71
2022-10-01 09:43:00,,0826.5,5.00,0.00,30.6,29.0,00.0,39.3,32.4,25.8,0000.0,0003.13,0004.44,0002.66
2022-10-01 09:44:00,,0826.6,5.01,0.00,30.6,29.1,00.0,39.3,32.3,25.9,0000.0,0003.08,0004.38,0002.58
2022-10-01 09:45:00,,0826.6,5.01,0.00,30.6,29.1,00.0,39.3,32.4,25.9,0000.0,0002.99,0004.30,0002.50
2022-10-01 09:46:00,,0826.5,5.00,0.00,30.6,29.0,00.0,39.3,32.4,25.8,0000.0,0002.84,0004.19,0002.37
2022-10-01 09:47:00,,0826.5,4.99,0.00,30.6,29.1,00.0,39.3,32.4,25.7,0000.0,0002.69,0003.96,0002.22
2022-10-01 09:48:00,,0826.5,4.99,0.00,30.6,29.1,00.0,39.3,32.4,25.6,0000.0,0002.57,0005.68,0002.07
2022-10-01 09:49:00,,0826.5,5.00,0.00,30.6,29.1,00.0,39.3,32.4,25.5,0000.0,0002.54,0005.76,0001.97
2022-10-01 09:50:00,,0826.5,5.00,0.00,30.6,29.0,00.0,39.3,32.4,25.4,0000.0,0002.45,0005.64,0001.90
2022-10-01 09:51:00,,0826.6,5.00,0.00,30.6,29.0,00.0,39.3,32.4,25.4,0000.0,0002.46,0005.83,0001.87
2022-10-01 09:52:00,,0826.6,5.00,0.00,30.5,29.0,00.0,39.3,32.4,25.4,0000.0,0002.49,0005.99,0001.84
2022-10-01 09:53:00,,0826.7,5.00,0.00,30.5,29.0,00.0,39.3,32.3,25.5,0000.0,0002.53,0006.47,0001.83
2022-10-01 09:54:00,,0826.7,5.01,0.00,30.5,28.9,00.0,39.3,32.3,25.6,0000.0,0002.58,0007.19,0001.83
2022-10-01 09:55:00,,0826.7,5.00,0.00,30.5,28.9,00.0,39.3,32.3,25.5,0000.0,0002.56,0007.26,0001.81
2022-10-01 09:56:00,,0826.8,5.00,0.00,30.5,28.8,00.0,39.3,32.3,25.4,0000.0,0002.47,0007.23,0001.75
2022-10-01 09:57:00,,0826.8,4.99,0.00,30.5,28.8,00.0,39.3,32.3,25.5,0000.0,0002.45,0007.10,0001.72
2022-10-01 09:58:00,,0826.9,5.00,0.00,30.5,28.8,00.0,39.3,32.3,25.4,0000.0,0002.40,0007.03,0001.69
2022-10-01 09:59:00,,0826.8,5.01,0.00,30.5,28.7,00.0,39.3,32.2,25.3,0000.0,0002.38,0005.57,0001.66
